Location: Beeston
(52.7000°N, 0.8167°E)
Time: 08:38:39
(UTC+00:00)

Cosmos 1238 Rocket - Pass Details

Date: 15 May 2026
Orbit: 351 x 697 km, 82.9° (Epoch: 6 June)

Event Time Altitude Azimuth Distance (km) Brightness Sun altitude
Exits shadow 23:13:26 23° 116° (ESE) 1,233 4.3 -17.7°
Maximum altitude 23:14:41 27° 86° (E) 1,135 4.3 -17.8°
Drops below altitude 10° 23:18:24 10° 29° (NNE) 1,996 6.4 -17.9°
Sets 23:21:00 0° 18° (NNE) 2,965 7.7 -17.9°
